Melfa, VA

6:34 AM EST on December 18, 2017 (GMT -0500)
Accomack County

Weather History for KMFV - January, 2013

Change the Weather History Date:

Wednesday, January 30, 2013

  Actual Average (KWAL) Record (KWAL)
Temperature  
Mean Temperature 60 °F -  
Max Temperature 69 °F 43 °F 79 °F (2002)
Min Temperature 51 °F 28 °F 3 °F (2014)
Degree Days  
Heating Degree Days 5    
Growing Degree Days 10 (Base 50)    
Moisture  
Dew Point 55 °F    
Average Humidity 82    
Maximum Humidity 94    
Minimum Humidity 64    
Precipitation  
Precipitation 0.00 in - - ()
Sea Level Pressure  
Sea Level Pressure 29.82 in    
Wind  
Wind Speed 11 mph (South)    
Max Wind Speed 24 mph    
Max Gust Speed 39 mph    
Visibility 9 miles    
Events Fog    
Averages and records for this station are not official NWS values.
T = Trace of Precipitation, MM = Missing Value Source: NWS Daily Summary

Daily Weather History Graph

Daily Weather History Graph

Search for Another Location

Airport or City:

Trip Planner

Search our weather history database for the weather conditions in past years. The results will help you decide how hot, cold, wet, or windy it might be!

Date:

Astronomy

Jan. 30, 2013 Rise Set
Actual Time 7:08 AM EST 5:24 PM EST
Civil Twilight 6:40 AM EST 5:52 PM EST
Nautical Twilight 6:09 AM EST 6:24 PM EST
Astronomical Twilight 5:38 AM EST 6:54 PM EST
Moon 9:15 PM EST (1/30) 8:40 AM EST (1/30)
Length of Visible Light 11h 12m
Length of Day
10h 16m
Waning Gibbous, 88% of the Moon is Illuminated
Jan 30
Waning Gibbous
Feb 3
Last Quarter
Feb 10
New
Feb 17
First Quarter
Feb 25
Full

Hourly Weather History & Observations

Time (EST) Temp. Dew Point Humidity Pressure Visibility Wind Dir Wind Speed Gust Speed Precip Events Conditions
12:16 AM 53.6 °F 48.2 °F 82% 30.07 in 10.0 mi South 5.8 mph - N/A   Clear
12:36 AM 53.6 °F 48.2 °F 82% 30.05 in 7.0 mi SSE 6.9 mph - N/A   Clear
12:56 AM 51.8 °F 48.2 °F 88% 30.05 in 7.0 mi South 4.6 mph - N/A   Clear
1:16 AM 51.8 °F 48.2 °F 88% 30.04 in 7.0 mi South 5.8 mph - N/A   Clear
1:36 AM 51.8 °F 48.2 °F 88% 30.04 in 7.0 mi South 5.8 mph - N/A   Clear
1:56 AM 51.8 °F 48.2 °F 88% 30.03 in 7.0 mi South 6.9 mph - N/A   Clear
2:15 AM 51.8 °F 48.2 °F 88% - 7.0 mi South 5.8 mph - N/A   Clear
2:35 AM 51.8 °F 48.2 °F 88% 30.02 in 7.0 mi South 6.9 mph - N/A   Clear
2:56 AM 53.6 °F 50.0 °F 88% 30.02 in 7.0 mi SSW 9.2 mph - N/A   Clear
3:16 AM 55.4 °F 51.8 °F 88% 30.01 in 10.0 mi SSW 8.1 mph - N/A   Clear
3:36 AM 55.4 °F 51.8 °F 88% 30.00 in 10.0 mi South 8.1 mph - N/A   Clear
3:57 AM 55.4 °F 51.8 °F 88% 29.99 in 10.0 mi South 9.2 mph - N/A   Clear
4:15 AM 57.2 °F 53.6 °F 88% 29.99 in 10.0 mi South 9.2 mph - N/A   Clear
4:36 AM 57.2 °F 53.6 °F 88% 29.99 in 10.0 mi South 8.1 mph - N/A   Clear
4:55 AM 57.2 °F 53.6 °F 88% 29.98 in 7.0 mi South 6.9 mph - N/A   Clear
5:16 AM 57.2 °F 53.6 °F 88% 29.98 in 7.0 mi South 9.2 mph - N/A   Clear
5:35 AM 55.4 °F 51.8 °F 88% 29.98 in 7.0 mi South 6.9 mph - N/A   Clear
5:56 AM 55.4 °F 53.6 °F 94% 29.98 in 7.0 mi South 9.2 mph - N/A   Clear
6:15 AM 55.4 °F 53.6 °F 94% 29.97 in 7.0 mi South 9.2 mph - N/A   Clear
6:35 AM 57.2 °F 53.6 °F 88% 29.97 in 7.0 mi South 9.2 mph - N/A   Clear
6:56 AM 57.2 °F 53.6 °F 88% 29.96 in 7.0 mi South 9.2 mph - N/A   Clear
7:16 AM 55.4 °F 53.6 °F 94% 29.96 in 5.0 mi South 11.5 mph 16.1 mph N/A   Scattered Clouds
7:35 AM 55.4 °F 53.6 °F 94% 29.96 in 0.8 mi South 10.4 mph - N/A   Overcast
8:15 AM 57.2 °F 55.4 °F 94% 29.95 in 1.0 mi South 11.5 mph 17.3 mph N/A   Overcast
8:36 AM 55.4 °F 53.6 °F 94% 29.93 in 0.5 mi South 11.5 mph 20.7 mph N/A Fog Fog
8:58 AM 57.2 °F 55.4 °F 94% 29.94 in 4.0 mi South 10.4 mph 16.1 mph N/A   Overcast
9:16 AM 57.2 °F 55.4 °F 94% 29.93 in 7.0 mi South 11.5 mph 17.3 mph N/A   Mostly Cloudy
9:35 AM 60.8 °F 57.2 °F 88% 29.93 in 10.0 mi South 11.5 mph 18.4 mph N/A   Scattered Clouds
9:55 AM 62.6 °F 57.2 °F 82% 29.92 in 10.0 mi South 10.4 mph 17.3 mph N/A   Clear
10:16 AM 62.6 °F 57.2 °F 82% 29.92 in 10.0 mi South 10.4 mph 16.1 mph N/A   Clear
10:37 AM 64.4 °F 57.2 °F 77% 29.91 in 10.0 mi South 12.7 mph 18.4 mph N/A   Clear
10:56 AM 66.2 °F 59.0 °F 78% 29.91 in 10.0 mi South 11.5 mph 17.3 mph N/A   Clear
11:16 AM 66.2 °F 59.0 °F 78% 29.90 in 10.0 mi South 10.4 mph 19.6 mph N/A   Clear
11:36 AM 68.0 °F 59.0 °F 73% 29.89 in 10.0 mi South 11.5 mph 18.4 mph N/A   Clear
11:55 AM 68.0 °F 57.2 °F 68% 29.87 in 10.0 mi South 10.4 mph 18.4 mph N/A   Clear
12:16 PM 68.0 °F 57.2 °F 68% 29.86 in 10.0 mi South 12.7 mph 21.9 mph N/A   Clear
12:37 PM 69.8 °F 59.0 °F 68% 29.84 in 10.0 mi South 11.5 mph 20.7 mph N/A   Clear
12:56 PM 69.8 °F 57.2 °F 64% 29.83 in 10.0 mi South 15.0 mph 21.9 mph N/A   Clear
1:15 PM 68.0 °F 57.2 °F 68% 29.82 in 10.0 mi South 12.7 mph 20.7 mph N/A   Clear
1:35 PM 66.2 °F 57.2 °F 73% 29.78 in 10.0 mi South 16.1 mph 24.2 mph N/A   Clear
1:56 PM 66.2 °F 57.2 °F 73% 29.77 in 10.0 mi South 16.1 mph 23.0 mph N/A   Clear
2:16 PM 66.2 °F 57.2 °F 73% 29.75 in 10.0 mi South 16.1 mph 24.2 mph N/A   Clear
2:35 PM 68.0 °F 57.2 °F 68% 29.76 in 10.0 mi South 12.7 mph 25.3 mph N/A   Clear
2:56 PM 66.2 °F 57.2 °F 73% 29.76 in 10.0 mi South 16.1 mph 26.5 mph N/A   Scattered Clouds
3:16 PM 66.2 °F 55.4 °F 68% 29.75 in 10.0 mi South 15.0 mph 25.3 mph N/A   Scattered Clouds
3:35 PM 66.2 °F 57.2 °F 73% 29.75 in 10.0 mi South 12.7 mph 25.3 mph N/A   Clear
3:56 PM 64.4 °F 55.4 °F 73% 29.74 in 10.0 mi South 15.0 mph 24.2 mph N/A   Scattered Clouds
4:16 PM 64.4 °F 55.4 °F 73% 29.74 in 10.0 mi South 12.7 mph 20.7 mph N/A   Mostly Cloudy
4:36 PM 62.6 °F 55.4 °F 77% 29.73 in 10.0 mi South 18.4 mph 27.6 mph N/A   Overcast
4:56 PM 62.6 °F 55.4 °F 77% 29.72 in 10.0 mi South 17.3 mph 24.2 mph N/A   Overcast
5:18 PM 62.6 °F 55.4 °F 77% 29.71 in 10.0 mi South 15.0 mph 25.3 mph N/A   Scattered Clouds
5:36 PM 62.6 °F 57.2 °F 82% 29.70 in 10.0 mi South 13.8 mph 27.6 mph N/A   Clear
5:56 PM 62.6 °F 57.2 °F 82% 29.71 in 10.0 mi South 15.0 mph 27.6 mph N/A   Clear
6:16 PM 62.6 °F 57.2 °F 82% 29.70 in 10.0 mi South 16.1 mph 23.0 mph N/A   Clear
6:36 PM 62.6 °F 57.2 °F 82% 29.69 in 10.0 mi South 16.1 mph 27.6 mph N/A   Clear
6:55 PM 62.6 °F 57.2 °F 82% 29.68 in 10.0 mi South 16.1 mph 27.6 mph N/A   Scattered Clouds
7:17 PM 60.8 °F 55.4 °F 82% 29.67 in 10.0 mi South 16.1 mph 26.5 mph N/A   Scattered Clouds
7:36 PM 60.8 °F 57.2 °F 88% 29.66 in 10.0 mi South 18.4 mph 28.8 mph N/A   Scattered Clouds
7:56 PM 62.6 °F 57.2 °F 82% 29.65 in 10.0 mi South 16.1 mph 27.6 mph N/A   Clear
8:16 PM 60.8 °F 57.2 °F 88% 29.64 in 10.0 mi South 16.1 mph 26.5 mph N/A   Clear
8:35 PM 62.6 °F 57.2 °F 82% 29.64 in 10.0 mi South 16.1 mph 24.2 mph N/A   Mostly Cloudy
8:56 PM 62.6 °F 57.2 °F 82% 29.62 in 10.0 mi South 18.4 mph 24.2 mph N/A   Overcast
9:18 PM 62.6 °F 57.2 °F 82% 29.60 in 10.0 mi South 17.3 mph 26.5 mph N/A   Overcast
9:36 PM 62.6 °F 57.2 °F 82% 29.58 in 10.0 mi South 20.7 mph 38.0 mph N/A   Scattered Clouds
9:55 PM 62.6 °F 57.2 °F 82% 29.57 in 10.0 mi South 23.0 mph 32.2 mph N/A   Clear
10:15 PM 60.8 °F 57.2 °F 88% 29.54 in 10.0 mi South 20.7 mph 36.8 mph N/A   Clear
10:36 PM 62.6 °F 57.2 °F 82% 29.53 in 10.0 mi South 21.9 mph 33.4 mph N/A   Scattered Clouds
10:56 PM 62.6 °F 57.2 °F 82% 29.52 in 10.0 mi South 20.7 mph 35.7 mph N/A   Clear
11:17 PM 62.6 °F 57.2 °F 82% 29.51 in 10.0 mi South 24.2 mph 39.1 mph N/A   Clear
11:35 PM 62.6 °F 57.2 °F 82% 29.48 in 10.0 mi South 21.9 mph 34.5 mph N/A   Scattered Clouds
11:56 PM 62.6 °F 57.2 °F 82% 29.47 in 10.0 mi South 21.9 mph 35.7 mph N/A   Mostly Cloudy